Home   Weather   Rheine   Past weeks

Flag for Germany Past Weather in Rheine, North Rhine-Westphalia, Germany — Yesterday and Last 2 Weeks

Now
43 °F

Quite cool.


Feels Like: 39 °F
Forecast: 42 / 51 °F
Wind: 7 mph from Southwest

Location: Rheine-Bentlage

Current Time: Feb 19, 2017 at 10:21:36 pm

Latest Report: Feb 19, 2017 at 9:20 pm


Visibility: N/A

Pressure: 30.12 "Hg

Humidity: 93%

Dew Point: 41 °F

Location of RheineLocation

Past Weather in Rheine — Graph

°F

Rheine Temperature Yesterday

Maximum temperature yesterday: 48 °F (at 2:20 pm)
Minimum temperature yesterday: 36 °F (at 10:20 pm)
Average temperature yesterday: 42 °F

High & Low Weather Summary for the Past Weeks

 TemperatureHumidityPressure
High54 °F (Feb 15, 2:20 pm)100% (Feb 6, 5:20 am)30.51 "Hg (Feb 6, 5:20 am)
Low27 °F (Feb 9, 3:20 am)47% (Feb 15, 2:20 pm)29.53 "Hg (Feb 4, 8:20 pm)
Average36 °F81%30.23 "Hg
* Reported Feb 4 8:20 pm — Feb 19 8:20 pm, Rheine, Weather by CustomWeather, © 2017

Note: Actual official high and low records may vary slightly from our data, if they occured in-between our weather recording intervals... More about our weather records

Advertising

Rheine Weather History for the Previous 24 Hours

Scroll right to see more
 ConditionsComfort  
Time TempWeatherWind HumidityBarometerVisibility
8:20 pm
Sun, Feb 19
43 °FQuite cool.7 mph93%30.12 "HgN/A
7:20 pm43 °FQuite cool.7 mph93%30.09 "HgN/A
6:20 pm43 °FQuite cool.6 mph93%30.09 "HgN/A
5:20 pm43 °FQuite cool.6 mph93%30.09 "HgN/A
4:20 pm41 °FQuite cool.7 mph100%30.09 "HgN/A
3:20 pm41 °FQuite cool.8 mph93%30.09 "HgN/A
2:20 pm41 °FQuite cool.8 mph93%30.09 "HgN/A
1:20 pm41 °FQuite cool.9 mph93%30.09 "HgN/A
12:20 pm39 °FChilly.8 mph93%30.12 "HgN/A
11:20 am39 °FChilly.9 mph93%30.12 "HgN/A
10:20 am41 °FQuite cool.9 mph81%30.12 "HgN/A
9:20 am41 °FQuite cool.9 mph81%30.12 "HgN/A
8:20 am39 °FChilly.7 mph81%30.12 "HgN/A
7:20 am39 °FChilly.6 mph81%30.12 "HgN/A
6:20 am37 °FChilly.6 mph87%30.12 "HgN/A
5:20 am37 °FChilly.5 mph81%30.15 "HgN/A
4:20 am37 °FChilly.6 mph81%30.15 "HgN/A
3:20 am37 °FChilly.3 mph81%30.18 "HgN/A
2:20 am36 °FChilly.3 mph87%30.21 "HgN/A
1:20 am36 °FChilly.2 mph87%30.21 "HgN/A
12:20 am36 °FChilly.3 mph87%30.24 "HgN/A
11:20 pm
Sat, Feb 18
36 °FChilly.2 mph87%30.24 "HgN/A
10:20 pm36 °FChilly.2 mph87%30.24 "HgN/A
Weather by CustomWeather, © 2017

See weather overviewHow to use our weather pages